Regional Weather Roundup
Issued by NWS

Home | Current Version | Previous Version | Text Only | Print | Product List | Glossary Off
Versions: 1 2 3 4 5 6 7 8 9 10 11 12 13 14 15 16 17 18 19 20 21 22 23 24 25 26 27 28 29 30 31 32 33 34 35 36 37 38 39 40 41 42 43 44 45 46 47 48 49 50

000
ASUS45 KCYS 230010
RWRWY

WYOMING REGIONAL WEATHER ROUNDUP
NATIONAL WEATHER SERVICE CHEYENNE WY
600 PM MDT MON MAY 22 2017

NOTE:  "FAIR" INDICATES FEW OR NO CLOUDS BELOW 12,000 FEET
WITH NO SIGNIFICANT WEATHER AND/OR OBSTRUCTIONS TO VISIBILITY.

WYZ001-230100-
YELLOWSTONE NATIONAL PARK

CITY           SKY/WX    TMP DP  RH WIND       PRES   REMARKS
LK YELLOWSTONE   N/A     48  34  58 VRB5      30.36R
6HR MIN TEMP:  46; 6HR MAX TEMP:  55;

W YELLOWSTONE  NOT AVBL

$$
WYZ002>013-054>058-071-098>099-230100-
NORTHERN WYOMING

CITY           SKY/WX    TMP DP  RH WIND       PRES   REMARKS
JACKSON        PTSUNNY   61  30  31 N17       30.24F
CODY           FAIR      57  36  45 NW7       30.25F
GREYBULL       FAIR      63  40  42 W13       30.18F
6HR MIN TEMP:  50; 6HR MAX TEMP:  63; 6HR PCP:  0.05;

WORLAND        FAIR      59  41  51 NW21      30.19F
6HR MIN TEMP:  47; 6HR MAX TEMP:  60; 6HR PCP:  0.04;

SHERIDAN       CLOUDY    58  40  51 NE10      30.18R
6HR MIN TEMP:  47; 6HR MAX TEMP:  61; 6HR PCP:  0.01;

BUFFALO        LGT RAIN  53  42  66 N14G24    30.20S
6HR MIN TEMP:  42; 6HR MAX TEMP:  57; 6HR PCP:  0.04;

GILLETTE       FAIR      52  41  66 NE7       30.16R
6HR MIN TEMP:  43; 6HR MAX TEMP:  57; 6HR PCP:  0.02;

HULETT         MOCLDY    54  37  54 N23G31    30.15R
NEWCASTLE      FAIR      52  36  54 N18G29    30.15R

$$
WYZ014>020-022>026-101>103-230100-
CENTRAL WYOMING

CITY           SKY/WX    TMP DP  RH WIND       PRES   REMARKS
BIG PINEY      CLOUDY    59  28  30 N22G30    30.23R
6HR MIN TEMP:  58; 6HR MAX TEMP:  66;

PINEDALE       CLOUDY    55  30  38 N21G26    30.23S
DUBOIS         CLOUDY    43  34  70 SE14      30.28R
LANDER         CLOUDY    44  37  76 W17       30.30S
6HR MIN TEMP:  42; 6HR MAX TEMP:  62; 6HR PCP:  0.11;

RIVERTON       LGT RAIN  46  41  82 SW10      30.28S
6HR MIN TEMP:  42; 6HR MAX TEMP:  57; 6HR PCP:  0.03;

CASPER         CLOUDY    46  41  82 W9        30.22F
6HR MIN TEMP:  38; 6HR MAX TEMP:  49; 6HR PCP:  0.15;

DOUGLAS        CLOUDY    48  37  65 N22G30    30.19R
6HR MIN TEMP:  41; 6HR MAX TEMP:  54;


$$
WYZ021-027>030-104>119-230100-
SOUTHERN WYOMING

CITY           SKY/WX    TMP DP  RH WIND       PRES   REMARKS
EVANSTON       PTSUNNY   63  36  36 NW20G29   30.25F
6HR MIN TEMP:  57; 6HR MAX TEMP:  65;

KEMMERER         N/A     59  30  33 W21G29    30.26R
FORT BRIDGER   FAIR      63  32  30 NW16G25   30.27F
ROCK SPRINGS   PTSUNNY   47  33  58 NE28G36   30.26R
6HR MIN TEMP:  47; 6HR MAX TEMP:  65; 6HR PCP: TRACE;

DIXON            N/A     44  36  75 NE20G29   30.29R
RAWLINS        CLOUDY    40  35  83 N3        30.28F
6HR MIN TEMP:  37; 6HR MAX TEMP:  61; 6HR PCP:  0.05;

SARATOGA       LGT RAIN  36  36 100 W9G17     30.30  WCI  29
LARAMIE        CLOUDY    38  34  85 NW17      30.22S WCI  28
6HR MIN TEMP:  35; 6HR MAX TEMP:  56; 6HR PCP:  0.12;

CHEYENNE       CLOUDY    43  35  73 NW17G24   30.17F
6HR MIN TEMP:  37; 6HR MAX TEMP:  60; 6HR PCP:  0.18;

TORRINGTON     PTSUNNY   57  31  37 NW22G33   30.11F
6HR MIN TEMP:  49; 6HR MAX TEMP:  57; 6HR PCP: TRACE;

PINE BLUFFS    FAIR      45  41  87 MISG      30.15F

$$



USA.gov is the U.S. government's official web portal to all federal, state and local government web resources and services.